Вернуться в каталог

FREGAT DEB

АктивенUNKNOWN
NORAD 45974·DEBRIS·🇷🇺 Russia

Запущен Jul 18, 2011 с Baikonur Cosmodrome

Loading…

Ближайшие Пролёты (ближайшие 24 часа)

TLE

СвежийSource: Space-Track

Эпоха: Sep 14, 2026, 02:40 UTC

1 45974U 11037GF  26257.11152773  .00000456  00000-0  61963-3 0  9993
2 45974  51.4718 283.4169 2162016  31.0999 340.1415 10.29125444230240

Отслеживайте FREGAT DEB в реальном времени с AllMySat

Download on the App Store